• In Kazakhstan
  • List of Countries
  • For 7 days
  • Water Temperature
  • Satellite Maps
  • Weather Map
  • News
  • Weather Widgets
  • user-avatar
    Login

    Hourly Weather Durres

    Today, 24 October, Tuesday

    Time Temperature Precipitation Wind Pressure Humidity
    00:00 +11°C° 0.2 mm 6 mps 752 mmHg 85%
    01:00 +11°C° 0.2 mm 6 mps 752 mmHg 85%
    02:00 +10°C° 0.1 mm 5 mps 751 mmHg 85%
    03:00 +10°C° 0.1 mm 5 mps 751 mmHg 84%
    04:00 +10°C° 0.1 mm 5 mps 751 mmHg 84%
    05:00 +10°C° 0 mm 5 mps 751 mmHg 82%
    06:00 +10°C° 0 mm 5 mps 751 mmHg 80%
    07:00 +12°C° 0 mm 5 mps 752 mmHg 79%
    08:00 +13°C° 0 mm 5 mps 752 mmHg 74%
    09:00 +13°C° 0 mm 6 mps 752 mmHg 69%
    10:00 +14°C° 0 mm 6 mps 752 mmHg 65%
    11:00 +14°C° 0.2 mm 6 mps 752 mmHg 66%
    12:00 +14°C° 0.2 mm 7 mps 753 mmHg 68%
    13:00 +14°C° 0.2 mm 7 mps 753 mmHg 69%
    14:00 +12°C° 0.3 mm 7 mps 753 mmHg 69%
    15:00 +12°C° 0.3 mm 7 mps 753 mmHg 69%
    16:00 +12°C° 0.3 mm 7 mps 753 mmHg 68%
    17:00 +12°C° 0.1 mm 7 mps 754 mmHg 70%
    18:00 +11°C° 0.1 mm 7 mps 754 mmHg 72%
    19:00 +11°C° 0.1 mm 7 mps 754 mmHg 74%
    20:00 +10°C° 0 mm 7 mps 755 mmHg 74%
    21:00 +10°C° 0 mm 7 mps 755 mmHg 74%
    22:00 +9°C° 0 mm 6 mps 756 mmHg 74%
    23:00 +9°C° 0 mm 7 mps 756 mmHg 74%

    Tomorrow, 25 October, Wednesday

    Time Temperature Precipitation Wind Pressure Humidity
    00:00 +9°C° 0 mm 7 mps 757 mmHg 75%
    01:00 +9°C° 0 mm 7 mps 757 mmHg 75%
    02:00 +9°C° 0 mm 7 mps 758 mmHg 75%
    03:00 +9°C° 0 mm 7 mps 758 mmHg 76%
    04:00 +9°C° 0 mm 7 mps 758 mmHg 76%
    05:00 +9°C° 0 mm 7 mps 759 mmHg 76%
    06:00 +10°C° 0 mm 7 mps 759 mmHg 75%
    07:00 +10°C° 0 mm 6 mps 760 mmHg 74%
    08:00 +14°C° 0 mm 7 mps 760 mmHg 66%
    09:00 +17°C° 0 mm 7 mps 761 mmHg 57%
    10:00 +20°C° 0 mm 7 mps 761 mmHg 48%
    11:00 +21°C° 0 mm 8 mps 761 mmHg 45%
    12:00 +22°C° 0 mm 8 mps 761 mmHg 43%
    13:00 +22°C° 0 mm 8 mps 761 mmHg 40%
    14:00 +21°C° 0 mm 9 mps 762 mmHg 44%
    15:00 +21°C° 0 mm 9 mps 762 mmHg 48%
    16:00 +19°C° 0 mm 9 mps 762 mmHg 52%
    17:00 +17°C° 0 mm 9 mps 763 mmHg 56%
    18:00 +16°C° 0 mm 9 mps 764 mmHg 59%
    19:00 +15°C° 0 mm 9 mps 765 mmHg 63%
    20:00 +13°C° 0 mm 8 mps 765 mmHg 65%
    21:00 +13°C° 0 mm 8 mps 766 mmHg 66%
    22:00 +14°C° 0 mm 7 mps 766 mmHg 67%
    23:00 +12°C° 0 mm 7 mps 766 mmHg 68%

    Day after tomorrow, 26 October, Thursday

    Time Temperature Precipitation Wind Pressure Humidity
    00:00 +13°C° 0 mm 6 mps 767 mmHg 69%
    01:00 +13°C° 0 mm 6 mps 767 mmHg 69%
    02:00 +11°C° 0 mm 6 mps 767 mmHg 69%
    03:00 +12°C° 0 mm 5 mps 767 mmHg 69%
    04:00 +12°C° 0 mm 5 mps 767 mmHg 69%
    05:00 +12°C° 0 mm 5 mps 767 mmHg 69%
    06:00 +13°C° 0 mm 4 mps 768 mmHg 68%
    07:00 +13°C° 0 mm 4 mps 768 mmHg 67%
    08:00 +15°C° 0 mm 4 mps 768 mmHg 59%
    09:00 +19°C° 0 mm 4 mps 768 mmHg 52%
    10:00 +21°C° 0 mm 3 mps 768 mmHg 44%
    11:00 +22°C° 0 mm 3 mps 768 mmHg 41%
    12:00 +24°C° 0 mm 3 mps 767 mmHg 39%
    13:00 +26°C° 0 mm 4 mps 767 mmHg 36%
    14:00 +25°C° 0 mm 4 mps 767 mmHg 41%
    15:00 +23°C° 0 mm 5 mps 767 mmHg 47%
    16:00 +22°C° 0 mm 5 mps 767 mmHg 52%
    17:00 +20°C° 0 mm 5 mps 767 mmHg 55%
    18:00 +19°C° 0 mm 4 mps 767 mmHg 59%
    19:00 +17°C° 0 mm 4 mps 767 mmHg 63%
    20:00 +17°C° 0 mm 4 mps 767 mmHg 61%
    21:00 +17°C° 0 mm 3 mps 767 mmHg 60%
    22:00 +16°C° 0 mm 3 mps 768 mmHg 59%
    23:00 +16°C° 0 mm 3 mps 767 mmHg 59%

    27 October, Friday

    Time Temperature Precipitation Wind Pressure Humidity
    00:00 +16°C° 0 mm 2 mps 767 mmHg 58%
    01:00 +16°C° 0 mm 2 mps 767 mmHg 58%
    02:00 +15°C° 0 mm 2 mps 767 mmHg 57%
    03:00 +15°C° 0 mm 2 mps 766 mmHg 57%
    04:00 +15°C° 0 mm 2 mps 766 mmHg 56%
    05:00 +15°C° 0 mm 2 mps 766 mmHg 56%
    06:00 +16°C° 0 mm 2 mps 766 mmHg 55%
    07:00 +16°C° 0 mm 1 mps 765 mmHg 54%
    08:00 +19°C° 0 mm 1 mps 765 mmHg 48%
    09:00 +21°C° 0 mm 1 mps 765 mmHg 42%
    10:00 +24°C° 0 mm 1 mps 765 mmHg 36%
    11:00 +24°C° 0 mm 1 mps 764 mmHg 36%
    12:00 +25°C° 0 mm 2 mps 763 mmHg 36%
    13:00 +25°C° 0 mm 2 mps 763 mmHg 36%
    14:00 +24°C° 0 mm 2 mps 762 mmHg 42%
    15:00 +23°C° 0 mm 2 mps 762 mmHg 47%
    16:00 +21°C° 0 mm 2 mps 761 mmHg 53%
    17:00 +20°C° 0 mm 1 mps 761 mmHg 57%
    18:00 +19°C° 0 mm 1 mps 761 mmHg 61%
    19:00 +16°C° 0 mm 0 mps 760 mmHg 66%
    20:00 +18°C° 0 mm 1 mps 760 mmHg 65%
    21:00 +16°C° 0 mm 1 mps 760 mmHg 64%
    22:00 +16°C° 0 mm 1 mps 760 mmHg 63%
    23:00 +16°C° 0 mm 2 mps 759 mmHg 62%

    28 October, Saturday

    Time Temperature Precipitation Wind Pressure Humidity
    00:00 +15°C° 0 mm 2 mps 759 mmHg 62%
    01:00 +15°C° 0 mm 2 mps 758 mmHg 61%
    02:00 +15°C° 0 mm 2 mps 758 mmHg 60%
    03:00 +15°C° 0 mm 2 mps 757 mmHg 59%
    04:00 +15°C° 0 mm 2 mps 757 mmHg 58%
    05:00 +15°C° 0 mm 2 mps 757 mmHg 58%
    06:00 +15°C° 0 mm 2 mps 756 mmHg 57%
    07:00 +15°C° 0 mm 2 mps 756 mmHg 57%
    08:00 +17°C° 0 mm 2 mps 756 mmHg 53%
    09:00 +18°C° 0 mm 2 mps 756 mmHg 48%
    10:00 +20°C° 0 mm 2 mps 757 mmHg 44%
    11:00 +20°C° 0 mm 2 mps 756 mmHg 43%
    12:00 +21°C° 0 mm 2 mps 756 mmHg 41%
    13:00 +22°C° 0 mm 3 mps 755 mmHg 40%
    14:00 +21°C° 0 mm 3 mps 755 mmHg 44%
    15:00 +20°C° 0 mm 3 mps 755 mmHg 47%
    16:00 +20°C° 0 mm 3 mps 755 mmHg 51%
    17:00 +18°C° 0 mm 3 mps 755 mmHg 54%
    18:00 +17°C° 0 mm 4 mps 756 mmHg 57%
    19:00 +15°C° 0 mm 4 mps 756 mmHg 59%
    20:00 +14°C° 0 mm 5 mps 756 mmHg 59%
    21:00 +14°C° 0 mm 5 mps 756 mmHg 60%
    22:00 +14°C° 0 mm 5 mps 756 mmHg 60%
    23:00 +14°C° 0.1 mm 5 mps 756 mmHg 61%

    29 October, Sunday

    Time Temperature Precipitation Wind Pressure Humidity
    00:00 +13°C° 0.1 mm 5 mps 756 mmHg 62%
    01:00 +13°C° 0.1 mm 5 mps 755 mmHg 63%
    02:00 +13°C° 0 mm 5 mps 755 mmHg 64%
    03:00 +12°C° 0 mm 5 mps 755 mmHg 65%
    04:00 +12°C° 0 mm 5 mps 755 mmHg 66%
    05:00 +12°C° 0 mm 5 mps 755 mmHg 66%
    06:00 +12°C° 0 mm 5 mps 755 mmHg 66%
    07:00 +12°C° 0 mm 5 mps 755 mmHg 66%
    08:00 +13°C° 0 mm 6 mps 755 mmHg 59%
    09:00 +14°C° 0 mm 6 mps 755 mmHg 52%
    10:00 +16°C° 0 mm 6 mps 755 mmHg 45%
    11:00 +16°C° 0 mm 7 mps 755 mmHg 42%
    12:00 +17°C° 0 mm 7 mps 755 mmHg 40%
    13:00 +17°C° 0 mm 7 mps 755 mmHg 37%
    14:00 +17°C° 0 mm 7 mps 755 mmHg 39%
    15:00 +16°C° 0 mm 7 mps 755 mmHg 40%
    16:00 +16°C° 0 mm 7 mps 755 mmHg 41%
    17:00 +14°C° 0 mm 7 mps 756 mmHg 45%
    18:00 +12°C° 0 mm 7 mps 757 mmHg 48%
    19:00 +10°C° 0 mm 7 mps 757 mmHg 51%
    20:00 +10°C° 0 mm 7 mps 758 mmHg 53%
    21:00 +9°C° 0 mm 8 mps 758 mmHg 55%
    22:00 +9°C° 0 mm 8 mps 759 mmHg 56%
    23:00 +8°C° 0 mm 7 mps 759 mmHg 57%

    30 October, Monday

    Time Temperature Precipitation Wind Pressure Humidity
    00:00 +8°C° 0 mm 7 mps 759 mmHg 57%
    01:00 +8°C° 0 mm 6 mps 759 mmHg 58%
    02:00 +7°C° 0 mm 6 mps 759 mmHg 57%
    03:00 +7°C° 0 mm 5 mps 759 mmHg 57%
    04:00 +7°C° 0 mm 5 mps 759 mmHg 56%
    05:00 +7°C° 0 mm 4 mps 759 mmHg 55%
    06:00 +7°C° 0 mm 4 mps 760 mmHg 54%
    07:00 +9°C° 0 mm 3 mps 760 mmHg 53%
    08:00 +11°C° 0 mm 3 mps 760 mmHg 46%
    09:00 +14°C° 0 mm 2 mps 760 mmHg 40%
    10:00 +16°C° 0 mm 2 mps 760 mmHg 33%
    11:00 +16°C° 0 mm 2 mps 760 mmHg 33%
    12:00 +17°C° 0 mm 2 mps 759 mmHg 33%
    13:00 +18°C° 0 mm 2 mps 759 mmHg 32%
    14:00 +17°C° 0 mm 2 mps 759 mmHg 36%
    15:00 +16°C° 0 mm 2 mps 759 mmHg 40%
    16:00 +16°C° 0 mm 2 mps 759 mmHg 44%
    17:00 +15°C° 0 mm 2 mps 760 mmHg 46%
    18:00 +13°C° 0 mm 2 mps 760 mmHg 48%
    19:00 +11°C° 0 mm 3 mps 760 mmHg 51%
    20:00 +11°C° 0 mm 3 mps 761 mmHg 51%
    21:00 +11°C° 0 mm 4 mps 761 mmHg 50%
    22:00 +11°C° 0 mm 4 mps 761 mmHg 50%
    23:00 +11°C° 0 mm 4 mps 761 mmHg 50%
    Show more